Location: Camp at the Woods
(43.2055°N, 93.0905°W)
Time: 08:46:07
(UTC+00:00)

BlueWalker 3 - Pass Details

Date: 17 April 2024
Orbit: 482 x 494 km, 53.2° (Epoch: 22 May)

Event Time Altitude Azimuth Distance (km) Brightness Sun altitude
Exits shadow 10:19:46 19° 251° (WSW) 1,235 3.3 -12.1°
Maximum altitude 10:20:44 21° 230° (SW) 1,164 3.2 -11.9°
Drops below altitude 10° 10:23:38 10° 180° (S) 1,685 4.3 -11.4°
Sets 10:26:10 0° 164° (SSE) 2,560 5.4 -11.0°
